EFMI

Details ICAO EFMI (MIK)
Name Mikkeli
Region Finland
Timezone Europe/Helsinki (UTC+3.0)
Plans Departing 2
Arriving 9
Stats Elevation 329 ft / 100 m (AMSL)
Location 61.686750° 27.201691°
Runways 1
Magnetic Variation 10.352° E
Sunrise 2018-05-27 00:53:31 UTC / 2018-05-27 03:53:31 Local
Sunset 2018-05-27 19:26:03 UTC / 2018-05-27 22:26:03 Local
Advertisement - Login to hide

Runways

ID Width Length Bearing (true) Bearing (mag) Surface Threshold Offset Overrun Length
11 144 ft / 44 m 5,565 ft / 1,696 m 112.61° 102.26° Asphalt 817 ft / 249 m 0 ft / 0 m
29 144 ft / 44 m 5,565 ft / 1,696 m 292.63° 282.28° Asphalt 329 ft / 100 m 0 ft / 0 m

Approach Navaids

Runway Type Ident Frequency Range Bearing (true) Bearing (mag) Slope Elevation
11 Localiser MI 109.50 MHz 18 nm / 33 km 112.64° 102.29° - 329 ft / 100 m (AMSL)
11 Glidescope MI 109.50 MHz 10 nm / 19 km 112.62° 102.27° 3.50° 329 ft / 100 m (AMSL)

Map

Weather


0- 5 10 15 20 25 30 35+ Temperature / ° C

Clouds and Precipitation
Forecast for 2018-05-27 06:00 UTC. Updated 4 minutes ago

Ground ~20,000 ft ~40,000 ft Winds

METAR

EFMI 270520Z AUTO 33005KT 240V060 CAVOK 14/02 Q1027

TAF

Not found

Frequencies

Recorded 118.25 MHz ATIS
Tower 119.70 MHz AFIS
Tower 123.00 MHz AFIS
Warning: Do not use this data for real-world aviation or navigation. No guarantee of current accuracy is given.